• Join FlightAware (Why Join?)
  • Login
  • US Flag 
11:03PM EDT


 

Airport Tracker/Info


-or-


 

Live Flight TrackerFlight Track Log ✈ N3TN ✈ 30-Apr-2013 ✈ KFZY - KBTV

Flight Track Log - Related Links

Times and Time Zones

All times are in EDT time to prevent confusion due to time zone crossing. See the N3TN flight status page for this flight to view local times or setup timezone preferences in your user account.

Time Position Orientation Groundspeed Altitude Reporting Facility
EDT Latitude Longitude Course Direction KTS MPH feet Rate Location/Type
05:46PM 43.3944 -76.2836 61° Northeast 101 116 2,500  Level Boston Center
05:47PM 43.4081 -76.2503 61° Northeast 94 108 2,900 420 Climbing Boston Center
05:48PM 43.4217 -76.2197 58° Northeast 95 109 3,400 540 Climbing Boston Center
05:49PM 43.4331 -76.1917 61° Northeast 90 104 4,000 480 Climbing Boston Center
05:50PM 43.4386 -76.1464 80° East 89 102 4,400 360 Climbing Boston Center
05:50PM 43.4431 -76.1350 62° Northeast 94 108 4,500 300 Climbing Boston Center
05:51PM 43.4589 -76.0989 59° Northeast 100 115 4,900 360 Climbing Boston Center
05:52PM 43.4703 -76.0653 65° Northeast 96 110 5,300 360 Climbing Boston Center
05:53PM 43.4858 -76.0347 55° Northeast 95 109 5,700 360 Climbing Boston Center
05:55PM 43.4972 -76.0039 63° Northeast 96 110 6,100 360 Climbing Boston Center
05:56PM 43.5108 -75.9731 59° Northeast 99 114 6,500 300 Climbing Boston Center
05:57PM 43.5247 -75.9311 65° Northeast 102 117 6,800 240 Climbing Boston Center
05:58PM 43.5381 -75.8975 61° Northeast 105 121 7,100 120 Climbing Boston Center
05:59PM 43.5581 -75.8614 53° Northeast 117 135 7,100  Level Boston Center
05:59PM 43.5736 -75.8250 59° Northeast 129 148 7,100  Level Boston Center
06:00PM 43.5897 -75.7797 64° Northeast 121 139 7,100  Level Boston Center
06:01PM 43.6033 -75.7406 64° Northeast 119 137 7,100  Level Boston Center
06:02PM 43.6211 -75.6983 60° Northeast 124 143 7,100  Level Boston Center
06:04PM 43.6408 -75.6622 53° Northeast 119 137 7,100 -60 Level Boston Center
06:05PM 43.6506 -75.6197 72° East 118 136 7,000 -60 Descending Boston Center
06:06PM 43.6642 -75.5744 67° East 122 140 7,000  Level Boston Center
06:07PM 43.6756 -75.5347 68° East 120 138 7,000  Level Boston Center
06:08PM 43.6894 -75.4894 67° East 121 139 7,000  Level Boston Center
06:09PM 43.7053 -75.4444 64° Northeast 121 139 7,000  Level Boston Center
06:10PM 43.7167 -75.4047 68° East 119 137 7,100  Climbing Boston Center
06:11PM 43.7325 -75.3594 64° Northeast 120 138 7,100  Level Boston Center
06:12PM 43.7461 -75.3172 66° East 121 139 7,100  Level Boston Center
06:12PM 43.7483 -75.3028 78° East 118 136 7,100  Level Boston Center
06:13PM 43.7617 -75.2775 54° Northeast 122 140 7,100  Level Boston Center
06:13PM 43.7619 -75.2603 89° East 118 136 7,100  Level Boston Center
06:14PM 43.7772 -75.2322 53° Northeast 122 140 7,100  Level Boston Center
06:14PM 43.7775 -75.2181 88° East 118 136 7,100  Level Boston Center
06:15PM 43.7908 -75.1897 57° Northeast 121 139 7,100  Level Boston Center
06:15PM 43.7933 -75.1756 76° East 118 136 7,100  Level Boston Center
06:16PM 43.8067 -75.1300 68° East 113 130 7,100  Level Boston Center
06:17PM 43.8203 -75.0875 66° East 113 130 7,100  Level Boston Center
06:18PM 43.8339 -75.0450 66° East 113 130 7,100  Level Boston Center
06:19PM 43.8472 -75.0053 65° Northeast 113 130 7,200  Climbing Boston Center
06:20PM 43.8628 -74.9628 63° Northeast 113 130 7,100 -60 Descending Boston Center
06:21PM 43.8761 -74.9258 63° Northeast 113 130 7,100  Level Boston Center
06:22PM 43.8914 -74.8861 62° Northeast 113 130 7,100 120 Level Boston Center
06:23PM 43.9047 -74.8519 62° Northeast 108 124 7,400 240 Climbing Boston Center
06:24PM 43.9158 -74.8178 66° East 103 119 7,600 300 Climbing Boston Center
06:25PM 43.9250 -74.7808 71° East 103 119 8,000 300 Climbing Boston Center
06:26PM 43.9400 -74.7525 54° Northeast 92 106 8,300 300 Climbing Boston Center
06:27PM 43.9511 -74.7211 64° Northeast 92 106 8,600 300 Climbing Boston Center
06:28PM 43.9642 -74.6869 62° Northeast 92 106 8,900 180 Climbing Boston Center
06:29PM 43.9753 -74.6528 66° East 92 106 9,000  Climbing Boston Center
06:30PM 43.9844 -74.6128 72° East 98 113 9,000  Level Boston Center
06:31PM 43.9997 -74.5731 62° Northeast 103 119 9,000  Level Boston Center
06:32PM 44.0131 -74.5331 65° Northeast 108 124 9,000  Level Boston Center
06:33PM 44.0242 -74.4931 69° East 113 130 9,000  Level Boston Center
06:34PM 44.0375 -74.4500 67° East 113 130 9,100  Climbing Boston Center
06:35PM 44.0528 -74.4103 62° Northeast 113 130 9,100  Level Boston Center
06:36PM 44.0681 -74.3731 60° Northeast 113 130 9,200  Climbing Boston Center
06:37PM 44.0853 -74.3389 55° Northeast 113 130 9,200 60 Level Boston Center
06:38PM 44.0983 -74.3017 64° Northeast 108 124 9,400 300 Climbing Boston Center
06:39PM 44.1175 -74.2792 40° Northeast 102 117 9,800 300 Climbing Boston Center
06:40PM 44.1242 -74.2447 75° East 89 102 10,000 120 Climbing Boston Center
06:41PM 44.1331 -74.2103 70° East 89 102 10,100  Climbing Boston Center
06:42PM 44.1442 -74.1672 70° East 96 110 10,100  Level Boston Center
06:43PM 44.1572 -74.1300 64° Northeast 102 117 10,100  Level Boston Center
06:44PM 44.1764 -74.0931 54° Northeast 107 123 10,100  Level Boston Center
06:45PM 44.1936 -74.0586 55° Northeast 112 129 10,100 -180 Level Boston Center
06:46PM 44.2067 -74.0272 60° Northeast 107 123 9,800 -600 Descending Boston Center
06:47PM 44.2175 -73.9869 69° East 107 123 9,000 -900 Descending Boston Center
06:48PM 44.2244 -73.9464 77° East 101 116 8,100 -660 Descending Boston Center
06:49PM 44.2353 -73.9064 69° East 101 116 7,700 -420 Descending Boston Center
06:50PM 44.2483 -73.8689 64° Northeast 106 122 7,300 -300 Descending Boston Center
06:51PM 44.2611 -73.8314 65° Northeast 106 122 7,100 -120 Descending Boston Center
06:52PM 44.2742 -73.7911 66° East 106 122 7,100 -300 Level Boston Center
06:54PM 44.2903 -73.7294 70° East  Level FlightAware Approximate
06:54PM 44.3003 -73.7047 70° East 111 128 6,300  Level Boston Center
06:55PM 44.3131 -73.6644 66° East 111 128 5,900 -420 Descending Boston Center
06:57PM 44.3272 -73.6017 73° East  Level FlightAware Approximate
07:04PM 44.4152 -73.2877 65° Northeast  Level FlightAware Approximate
07:05PM 44.4298 -73.2441 65° Northeast  Level FlightAware Approximate
07:06PM 44.4460 -73.2016 61° Northeast  Level FlightAware Approximate
07:07PM 44.4628 -73.1596 61° Northeast  Level FlightAware Approximate
07:08PM 44.4667 -73.1500 61° Northeast  Level FlightAware Approximate
07:09PM 44.4719 -73.1533 61° Northeast  Level Estimated
07:10PM 44.4667 -73.1500 61° Northeast  Level FlightAware Approximate
07:11PM 44.4719 -73.1533 61° Northeast  Level Estimated
07:12PM 44.4667 -73.1500 61° Northeast  Level FlightAware Approximate
07:13PM 44.4719 -73.1533 61° Northeast  Level Estimated
07:14PM 44.4667 -73.1500 61° Northeast  Level FlightAware Approximate
07:15PM 44.4719 -73.1533 61° Northeast  Level Estimated